Flag for Namibia Weather past 2 weeks in Swakopmund, Namibia

Now
57 °F

Low clouds.


Feels Like: 56 °F
Forecast: 57 / 68 °F
Wind: 6 mph from Northeast

Location: Walvis Bay

Current Time: Sep 17, 2014 at 7:55:32 AM

Latest Report: Sep 17, 2014 at 7:00 AM


Visibility: N/A

Pressure: 30.04 "Hg

Humidity: 94%

Dew point: 55 °F

Location of SwakopmundLocation

Historic Weather in Swakopmund — Graph

°F

Swakopmund temperature yesterday

Maximum temperature yesterday: 66 °F (at 2:00 PM)
Minimum temperature yesterday: 55 °F (at 1:00 AM)
Average temperature yesterday: 59 °F

Past Weeks' High & Low Weather Summary

 TemperatureHumidityPressure
High100 °F (Sep 7, 6:00 PM)100% (Sep 4, 8:00 AM)30.15 "Hg (Sep 4, 8:00 AM)
Low45 °F (Sep 8, 6:00 AM)9% (Sep 7, 6:00 PM)29.89 "Hg (Sep 15, 7:00 AM)
Average58 °F76%30.03 "Hg
* Reported Sep 2 6:00 AM — Sep 17 7:00 AM, Swakopmund, Weather by CustomWeather, © 2014

Note: Actual official high and low records may vary slightly from our data, if they occured in-between our weather recording intervals... More about our weather records

Advertising

Swakopmund weather history for previous 24 hours

 ConditionsComfort  
Time TempWeatherWind HumidityBarometerVisibility
7:00 AM
Sep 17
57 °FLow clouds.6 mph94%30.04 "HgN/A
6:00 AM57 °FLow clouds.7 mph94%30.01 "HgN/A
4:00 AM57 °FCool.7 mph94%30.01 "HgN/A
3:00 AM57 °FCool.10 mph94%30.01 "HgN/A
2:00 AM57 °FCool.8 mph94%30.01 "HgN/A
1:00 AM57 °FCool.9 mph88%30.01 "HgN/A
12:00 AM57 °FCool.9 mph88%30.04 "HgN/A
11:00 PM
Sep 16
57 °FCool.10 mph88%30.04 "HgN/A
10:00 PM57 °FCool.12 mph88%30.04 "HgN/A
9:00 PM57 °FCool.8 mph88%30.01 "HgN/A
8:00 PM57 °FLow clouds.8 mph88%29.98 "HgN/A
7:00 PM57 °FCool.5 mph88%29.98 "HgN/A
4:00 PM63 °FPartly sunny.12 mph73%29.92 "HgN/A
3:00 PM64 °FPartly sunny.9 mph68%29.92 "HgN/A
2:00 PM66 °FPartly sunny.10 mph64%29.95 "HgN/A
1:00 PM64 °FSunny.14 mph68%30.01 "Hg10 mi
12:00 PM64 °FSunny.13 mph68%30.01 "Hg10 mi
11:00 AM63 °FPartly sunny.12 mph73%30.01 "HgN/A
10:00 AM59 °FOvercast.12 mph82%30.04 "HgN/A
9:00 AM57 °FOvercast.13 mph82%30.04 "HgN/A
8:00 AM57 °FLow clouds.12 mph88%30.01 "HgN/A
7:00 AM57 °FLow clouds.10 mph88%30.01 "HgN/A
Weather by CustomWeather, © 2014

See weather overviewHow to use our weather pages